| time (UTC) | temp F | wind direction | speed MPH | gust MPH | rain 1hr in | rain 24hr in | rain mn in | humidity % | barometer mb |
| 20260831210048 | 87 | 178 | 3.0 | 12.0 | 0.00 | 0.06 | 0.06 | 33 | 1024.0 |
| 20260831205548 | 87 | 185 | 5.0 | 12.0 | 0.00 | 0.06 | 0.06 | 32 | 1024.0 |
| 20260831205047 | 87 | 269 | 3.0 | 10.0 | 0.00 | 0.06 | 0.06 | 32 | 1024.0 |
| 20260831204547 | 87 | 158 | 3.0 | 11.0 | 0.00 | 0.06 | 0.06 | 33 | 1024.0 |
| 20260831204048 | 86 | 193 | 5.0 | 11.0 | 0.00 | 0.06 | 0.06 | 35 | 1024.0 |
| 20260831203547 | 86 | 278 | 6.0 | 16.0 | 0.00 | 0.06 | 0.06 | 33 | 1023.9 |
| 20260831203309 | 87 | 271 | 8.0 | 16.0 | 0.00 | 0.06 | 0.06 | 31 | 1024.1 |
| 20260831202547 | 88 | 244 | 4.0 | 14.0 | 0.00 | 0.06 | 0.06 | 32 | 1024.0 |
| 20260831202048 | 88 | 185 | 3.0 | 15.0 | 0.00 | 0.06 | 0.06 | 30 | 1024.1 |
| 20260831201548 | 89 | 209 | 6.0 | 15.0 | 0.00 | 0.06 | 0.06 | 31 | 1024.1 |
| 20260831201048 | 89 | 244 | 8.0 | 13.0 | 0.00 | 0.06 | 0.06 | 28 | 1024.0 |
| 20260831200548 | 89 | 247 | 4.0 | 11.0 | 0.00 | 0.06 | 0.06 | 28 | 1024.2 |
| 20260831200047 | 89 | 202 | 5.0 | 12.0 | 0.00 | 0.06 | 0.06 | 29 | 1024.2 |
| 20260831195545 | 89 | 278 | 7.0 | 12.0 | 0.00 | 0.06 | 0.06 | 30 | 1024.4 |
| 20260831195044 | 89 | 272 | 6.0 | 12.0 | 0.00 | 0.06 | 0.06 | 29 | 1024.4 |
| 20260831194802 | 88 | 240 | 4.0 | 14.0 | 0.00 | 0.06 | 0.06 | 31 | 1024.5 |
| 20260831194045 | 87 | 197 | 3.0 | 14.0 | 0.00 | 0.06 | 0.06 | 31 | 1024.6 |
| 20260831193544 | 87 | 254 | 8.0 | 14.0 | 0.00 | 0.06 | 0.06 | 32 | 1024.6 |
| 20260831193044 | 87 | 206 | 4.0 | 9.0 | 0.00 | 0.06 | 0.06 | 33 | 1024.9 |
| 20260831192544 | 87 | 137 | 4.0 | 10.0 | 0.00 | 0.06 | 0.06 | 31 | 1024.9 |
| 20260831192044 | 87 | 200 | 7.0 | 12.0 | 0.00 | 0.06 | 0.06 | 30 | 1024.9 |
| 20260831191805 | 87 | 154 | 6.0 | 12.0 | 0.00 | 0.06 | 0.06 | 31 | 1025.2 |
| 20260831191044 | 86 | 120 | 6.0 | 11.0 | 0.00 | 0.06 | 0.06 | 31 | 1025.2 |
| 20260831190812 | 86 | 124 | 1.0 | 10.0 | 0.00 | 0.06 | 0.06 | 32 | 1025.3 |
| 20260831190044 | 85 | 131 | 6.0 | 10.0 | 0.00 | 0.06 | 0.06 | 33 | 1025.3 |
| 20260831185545 | 84 | 142 | 1.0 | 9.0 | 0.00 | 0.06 | 0.06 | 34 | 1025.5 |
| 20260831185044 | 84 | 128 | 2.0 | 9.0 | 0.00 | 0.06 | 0.06 | 34 | 1025.5 |
| 20260831184812 | 84 | 131 | 4.0 | 7.0 | 0.00 | 0.06 | 0.06 | 34 | 1025.7 |
| 20260831184042 | 83 | 34 | 1.0 | 4.0 | 0.00 | 0.06 | 0.06 | 36 | 1025.7 |
| 20260831183541 | 83 | 35 | 1.0 | 3.0 | 0.00 | 0.06 | 0.06 | 34 | 1025.9 |
| 20260831183041 | 83 | 35 | 1.0 | 3.0 | 0.00 | 0.06 | 0.06 | 36 | 1026.1 |
| 20260831182541 | 83 | 35 | 2.0 | 3.0 | 0.00 | 0.06 | 0.06 | 35 | 1026.1 |
| 20260831182042 | 83 | 35 | 1.0 | 3.0 | 0.00 | 0.06 | 0.06 | 33 | 1026.1 |
| 20260831181542 | 83 | 35 | 1.0 | 5.0 | 0.00 | 0.06 | 0.06 | 34 | 1026.2 |
| 20260831181041 | 82 | 35 | 1.0 | 5.0 | 0.00 | 0.06 | 0.06 | 36 | 1026.2 |
| 20260831180541 | 82 | 54 | 0.0 | 5.0 | 0.00 | 0.06 | 0.06 | 40 | 1026.2 |
| 20260831180532 | 81 | 55 | 1.0 | 5.0 | 0.00 | 0.06 | 0.06 | 39 | 1026.3 |
| 20260831175541 | 81 | 55 | 1.0 | 6.0 | 0.00 | 0.06 | 0.06 | 38 | 1026.3 |
| 20260831175041 | 80 | 45 | 1.0 | 6.0 | 0.00 | 0.06 | 0.06 | 38 | 1026.3 |
| 20260831174540 | 80 | 47 | 2.0 | 6.0 | 0.00 | 0.06 | 0.06 | 41 | 1026.3 |
| 20260831174258 | 79 | 30 | 2.0 | 6.0 | 0.00 | 0.06 | 0.06 | 43 | 1026.4 |
| 20260831173538 | 78 | 31 | 2.0 | 6.0 | 0.00 | 0.06 | 0.06 | 43 | 1026.4 |
| 20260831173038 | 78 | 44 | 3.0 | 7.0 | 0.00 | 0.06 | 0.06 | 44 | 1026.4 |
| 20260831172539 | 78 | 0 | 4.0 | 10.0 | 0.00 | 0.06 | 0.06 | 44 | 1026.4 |
| 20260831172255 | 77 | 47 | 4.0 | 10.0 | 0.00 | 0.06 | 0.06 | 46 | 1026.4 |
| 20260831171532 | 77 | 42 | 2.0 | 7.0 | 0.00 | 0.06 | 0.06 | 44 | 1026.7 |
| 20260831171523 | 77 | 1 | 4.0 | 7.0 | 0.00 | 0.06 | 0.06 | 44 | 1026.7 |
| 20260831170532 | 77 | 23 | 3.0 | 7.0 | 0.00 | 0.06 | 0.06 | 45 | 1026.8 |
| 20260831170032 | 77 | 30 | 3.0 | 7.0 | 0.00 | 0.06 | 0.06 | 46 | 1026.7 |
| 20260831165751 | 76 | 1 | 4.0 | 7.0 | 0.00 | 0.06 | 0.06 | 48 | 1026.8 |
| 20260831165032 | 76 | 7 | 3.0 | 9.0 | 0.00 | 0.06 | 0.06 | 46 | 1026.8 |
| 20260831164532 | 76 | 0 | 5.0 | 10.0 | 0.00 | 0.06 | 0.06 | 44 | 1026.8 |
| 20260831164032 | 76 | 6 | 3.0 | 15.0 | 0.00 | 0.06 | 0.06 | 46 | 1026.8 |
| 20260831163531 | 77 | 18 | 4.0 | 15.0 | 0.00 | 0.06 | 0.06 | 46 | 1026.8 |
| 20260831163302 | 77 | 20 | 4.0 | 10.0 | 0.00 | 0.06 | 0.06 | 47 | 1027.0 |
| 20260831162529 | 0 | 0.0 | 0.0 | 0.00 | 0.00 | 0.00 | 1026.9 | ||
| 20260831161628 | 74 | 8 | 3.0 | 10.0 | 0.00 | 0.06 | 0.06 | 51 | 1026.8 |
| 20260831161128 | 73 | 23 | 5.0 | 10.0 | 0.00 | 0.06 | 0.06 | 52 | 1026.8 |
| 20260831160629 | 73 | 10 | 5.0 | 12.0 | 0.00 | 0.06 | 0.06 | 54 | 1026.9 |
| 20260831160128 | 72 | 51 | 4.0 | 12.0 | 0.00 | 0.06 | 0.06 | 55 | 1026.9 |
| 20260831155628 | 71 | 30 | 3.0 | 7.0 | 0.00 | 0.06 | 0.06 | 60 | 1026.9 |
| 20260831155350 | 69 | 38 | 4.0 | 11.0 | 0.00 | 0.06 | 0.06 | 62 | 1026.9 |
| 20260831154851 | 69 | 25 | 6.0 | 11.0 | 0.00 | 0.06 | 0.06 | 61 | 1026.9 |
| 20260831154127 | 68 | 41 | 4.0 | 9.0 | 0.00 | 0.06 | 0.06 | 63 | 1026.9 |
| 20260831153627 | 68 | 16 | 4.0 | 9.0 | 0.00 | 0.06 | 0.06 | 63 | 1026.9 |
| 20260831153128 | 67 | 47 | 4.0 | 12.0 | 0.00 | 0.06 | 0.06 | 65 | 1027.0 |
| 20260831152628 | 67 | 49 | 7.0 | 12.0 | 0.00 | 0.06 | 0.06 | 65 | 1027.0 |
| 20260831152127 | 66 | 41 | 5.0 | 13.0 | 0.00 | 0.06 | 0.06 | 66 | 1027.0 |
| 20260831151847 | 66 | 37 | 6.0 | 13.0 | 0.00 | 0.06 | 0.06 | 68 | 1027.0 |
| 20260831151128 | 65 | 37 | 5.0 | 10.0 | 0.00 | 0.06 | 0.06 | 69 | 1027.0 |
| 20260831150628 | 65 | 38 | 5.0 | 10.0 | 0.00 | 0.06 | 0.06 | 70 | 1027.2 |
| 20260831150615 | 65 | 37 | 4.0 | 9.0 | 0.00 | 0.06 | 0.06 | 71 | 1027.2 |
| 20260831145627 | 64 | 16 | 6.0 | 9.0 | 0.00 | 0.06 | 0.06 | 73 | 1027.2 |
| 20260831145129 | 64 | 24 | 4.0 | 6.0 | 0.00 | 0.06 | 0.06 | 74 | 1027.4 |
| 20260831144627 | 64 | 10 | 3.0 | 9.0 | 0.00 | 0.06 | 0.06 | 75 | 1027.3 |
| 20260831144349 | 63 | 20 | 3.0 | 9.0 | 0.00 | 0.06 | 0.06 | 77 | 1027.4 |
| 20260831143627 | 63 | 24 | 2.0 | 6.0 | 0.00 | 0.06 | 0.06 | 78 | 1027.4 |
| 20260831143128 | 63 | 25 | 3.0 | 9.0 | 0.00 | 0.06 | 0.06 | 78 | 1027.3 |
| 20260831142853 | 63 | 24 | 4.0 | 10.0 | 0.00 | 0.06 | 0.06 | 78 | 1027.3 |
| 20260831142127 | 63 | 17 | 5.0 | 10.0 | 0.00 | 0.06 | 0.06 | 79 | 1027.4 |
| 20260831141628 | 62 | 39 | 5.0 | 10.0 | 0.00 | 0.06 | 0.06 | 80 | 1027.4 |
| 20260831141128 | 62 | 24 | 4.0 | 9.0 | 0.00 | 0.06 | 0.06 | 82 | 1027.5 |
| 20260831140628 | 61 | 44 | 3.0 | 9.0 | 0.00 | 0.06 | 0.06 | 86 | 1027.6 |
| 20260831140128 | 60 | 51 | 4.0 | 9.0 | 0.00 | 0.06 | 0.06 | 87 | 1027.5 |
| 20260831135627 | 59 | 32 | 4.0 | 7.0 | 0.00 | 0.06 | 0.06 | 90 | 1027.5 |
| 20260831135128 | 59 | 37 | 4.0 | 7.0 | 0.00 | 0.06 | 0.06 | 91 | 1027.5 |
| 20260831134627 | 59 | 10 | 0.0 | 5.0 | 0.00 | 0.06 | 0.06 | 91 | 1027.6 |
| 20260831134128 | 58 | 10 | 3.0 | 5.0 | 0.00 | 0.06 | 0.06 | 92 | 1027.6 |
| 20260831133627 | 58 | 4 | 2.0 | 5.0 | 0.00 | 0.06 | 0.06 | 92 | 1027.6 |
| 20260831133128 | 58 | 0 | 4.0 | 5.0 | 0.00 | 0.06 | 0.06 | 92 | 1027.6 |
| 20260831132627 | 57 | 303 | 2.0 | 5.0 | 0.00 | 0.06 | 0.06 | 92 | 1027.5 |
| 20260831132127 | 57 | 302 | 1.0 | 5.0 | 0.00 | 0.06 | 0.06 | 93 | 1027.5 |
| 20260831131628 | 57 | 302 | 0.0 | 2.0 | 0.00 | 0.06 | 0.06 | 93 | 1027.5 |
| 20260831131127 | 57 | 302 | 0.0 | 0.0 | 0.00 | 0.06 | 0.06 | 92 | 1027.3 |
| 20260831130627 | 57 | 302 | 0.0 | 0.0 | 0.00 | 0.06 | 0.06 | 92 | 1027.3 |
| 20260831130346 | 57 | 302 | 0.0 | 0.0 | 0.00 | 0.06 | 0.06 | 91 | 1027.2 |
| 20260831125628 | 57 | 302 | 0.0 | 0.0 | 0.00 | 0.06 | 0.06 | 91 | 1027.0 |
| 20260831125347 | 57 | 302 | 0.0 | 0.0 | 0.00 | 0.06 | 0.06 | 91 | 1026.9 |
| 20260831124848 | 57 | 302 | 0.0 | 0.0 | 0.00 | 0.06 | 0.06 | 91 | 1026.9 |
| 20260831124127 | 57 | 302 | 0.0 | 0.0 | 0.01 | 0.06 | 0.06 | 90 | 1026.7 |
| 20260831123627 | 57 | 302 | 0.0 | 2.0 | 0.01 | 0.06 | 0.06 | 90 | 1026.4 |
| 20260831123127 | 57 | 302 | 0.0 | 4.0 | 0.01 | 0.06 | 0.06 | 89 | 1026.3 |
| 20260831122628 | 57 | 302 | 1.0 | 4.0 | 0.01 | 0.06 | 0.06 | 89 | 1026.3 |
| 20260831122127 | 58 | 302 | 0.0 | 3.0 | 0.03 | 0.06 | 0.06 | 88 | 1026.1 |
| 20260831121627 | 58 | 300 | 2.0 | 3.0 | 0.06 | 0.06 | 0.06 | 88 | 1026.3 |
| 20260831121127 | 58 | 295 | 2.0 | 3.0 | 0.06 | 0.06 | 0.06 | 88 | 1026.3 |
| 20260831120627 | 58 | 293 | 2.0 | 3.0 | 0.06 | 0.06 | 0.06 | 87 | 1026.4 |
| 20260831120127 | 58 | 292 | 1.0 | 2.0 | 0.06 | 0.06 | 0.06 | 86 | 1026.7 |
| 20260831115627 | 59 | 292 | 0.0 | 7.0 | 0.06 | 0.00 | 0.06 | 85 | 1026.7 |
| 20260831115127 | 59 | 292 | 2.0 | 7.0 | 0.06 | 0.00 | 0.06 | 84 | 1026.8 |
| 20260831114627 | 60 | 298 | 5.0 | 7.0 | 0.06 | 0.00 | 0.06 | 83 | 1026.9 |
| 20260831114127 | 61 | 25 | 2.0 | 4.0 | 0.05 | 0.00 | 0.05 | 81 | 1026.9 |
| 20260831113627 | 62 | 25 | 0.0 | 2.0 | 0.05 | 0.00 | 0.05 | 78 | 1026.9 |
| 20260831113611 | 63 | 25 | 0.0 | 10.0 | 0.05 | 0.00 | 0.05 | 75 | 1027.0 |
| 20260831112627 | 65 | 25 | 2.0 | 10.0 | 0.05 | 0.00 | 0.05 | 73 | 1026.7 |
| 20260831112127 | 66 | 48 | 3.0 | 7.0 | 0.03 | 0.00 | 0.03 | 69 | 1026.6 |
| 20260831111855 | 66 | 59 | 2.0 | 7.0 | 0.00 | 0.00 | 0.00 | 57 | 1026.7 |
| 20260831111127 | 66 | 59 | 1.0 | 7.0 | 0.00 | 0.00 | 0.00 | 56 | 1026.3 |
| 20260831110627 | 66 | 42 | 4.0 | 10.0 | 0.00 | 0.00 | 0.00 | 56 | 1025.9 |
| 20260831110127 | 66 | 38 | 5.0 | 10.0 | 0.00 | 0.00 | 0.00 | 56 | 1025.7 |
| 20260831105627 | 66 | 27 | 4.0 | 10.0 | 0.00 | 0.00 | 0.00 | 56 | 1025.7 |
| 20260831105126 | 66 | 38 | 3.0 | 11.0 | 0.00 | 0.00 | 0.00 | 56 | 1025.7 |
| 20260831104627 | 66 | 31 | 5.0 | 11.0 | 0.00 | 0.00 | 0.00 | 56 | 1025.8 |
| 20260831104348 | 66 | 45 | 4.0 | 9.0 | 0.00 | 0.00 | 0.00 | 56 | 1025.8 |
| 20260831103627 | 66 | 45 | 2.0 | 9.0 | 0.00 | 0.00 | 0.00 | 56 | 1025.8 |
| 20260831103127 | 66 | 51 | 5.0 | 7.0 | 0.00 | 0.00 | 0.00 | 56 | 1025.8 |
| 20260831102626 | 67 | 45 | 4.0 | 7.0 | 0.00 | 0.00 | 0.00 | 55 | 1025.8 |
| 20260831102126 | 67 | 38 | 5.0 | 10.0 | 0.00 | 0.00 | 0.00 | 55 | 1025.9 |
| 20260831101627 | 67 | 39 | 6.0 | 10.0 | 0.00 | 0.00 | 0.00 | 55 | 1025.8 |
| 20260831101128 | 67 | 37 | 3.0 | 7.0 | 0.00 | 0.00 | 0.00 | 55 | 1025.8 |
| 20260831100627 | 67 | 39 | 5.0 | 7.0 | 0.00 | 0.00 | 0.00 | 55 | 1025.8 |
| 20260831100127 | 67 | 31 | 4.0 | 9.0 | 0.00 | 0.00 | 0.00 | 55 | 1025.7 |
| 20260831095627 | 67 | 31 | 4.0 | 9.0 | 0.00 | 0.00 | 0.00 | 55 | 1025.7 |
| 20260831095127 | 67 | 27 | 4.0 | 9.0 | 0.00 | 0.00 | 0.00 | 54 | 1025.7 |
| 20260831094626 | 67 | 24 | 3.0 | 9.0 | 0.00 | 0.00 | 0.00 | 54 | 1025.6 |
| 20260831094127 | 67 | 23 | 3.0 | 9.0 | 0.00 | 0.00 | 0.00 | 54 | 1025.5 |
| 20260831093627 | 67 | 17 | 4.0 | 6.0 | 0.00 | 0.00 | 0.00 | 54 | 1025.6 |
| 20260831093613 | 67 | 16 | 3.0 | 7.0 | 0.00 | 0.00 | 0.00 | 53 | 1025.5 |
| 20260831092627 | 67 | 13 | 3.0 | 7.0 | 0.00 | 0.00 | 0.00 | 53 | 1025.5 |
| 20260831092126 | 67 | 18 | 4.0 | 7.0 | 0.00 | 0.00 | 0.00 | 53 | 1025.5 |
| 20260831091850 | 67 | 23 | 3.0 | 6.0 | 0.00 | 0.00 | 0.00 | 52 | 1025.5 |
| 20260831091127 | 68 | 24 | 4.0 | 12.0 | 0.00 | 0.00 | 0.00 | 52 | 1025.6 |
| 20260831090626 | 68 | 13 | 4.0 | 12.0 | 0.00 | 0.00 | 0.00 | 52 | 1025.6 |
| 20260831090126 | 68 | 25 | 3.0 | 9.0 | 0.00 | 0.00 | 0.00 | 52 | 1025.5 |
| 20260831085626 | 68 | 24 | 4.0 | 10.0 | 0.00 | 0.00 | 0.00 | 52 | 1025.5 |
| 20260831085127 | 68 | 48 | 4.0 | 11.0 | 0.00 | 0.00 | 0.00 | 52 | 1025.3 |
| 20260831084850 | 68 | 47 | 4.0 | 11.0 | 0.00 | 0.00 | 0.00 | 52 | 1025.5 |
| 20260831084126 | 68 | 42 | 3.0 | 11.0 | 0.00 | 0.00 | 0.00 | 52 | 1025.3 |
| 20260831083627 | 68 | 28 | 5.0 | 11.0 | 0.00 | 0.00 | 0.00 | 52 | 1025.5 |
| 20260831083126 | 68 | 37 | 4.0 | 10.0 | 0.00 | 0.00 | 0.00 | 52 | 1025.5 |
| 20260831082626 | 69 | 31 | 3.0 | 10.0 | 0.00 | 0.00 | 0.00 | 52 | 1025.6 |
| 20260831082126 | 69 | 44 | 2.0 | 9.0 | 0.00 | 0.00 | 0.00 | 51 | 1025.5 |
| 20260831081626 | 69 | 37 | 5.0 | 9.0 | 0.00 | 0.00 | 0.00 | 51 | 1025.5 |
| 20260831081126 | 69 | 38 | 2.0 | 9.0 | 0.00 | 0.00 | 0.00 | 52 | 1025.5 |
| 20260831080626 | 69 | 37 | 4.0 | 9.0 | 0.00 | 0.00 | 0.00 | 52 | 1025.5 |
| 20260831080126 | 69 | 38 | 3.0 | 7.0 | 0.00 | 0.00 | 0.00 | 51 | 1025.5 |
| 20260831075626 | 69 | 41 | 2.0 | 6.0 | 0.00 | 0.00 | 0.00 | 52 | 1025.5 |
| 20260831075127 | 69 | 44 | 2.0 | 11.0 | 0.00 | 0.00 | 0.00 | 52 | 1025.5 |
| 20260831074627 | 68 | 45 | 4.0 | 11.0 | 0.00 | 0.00 | 0.00 | 52 | 1025.6 |
| 20260831074352 | 68 | 32 | 4.0 | 7.0 | 0.00 | 0.00 | 0.00 | 53 | 1025.5 |
| 20260831073627 | 68 | 48 | 3.0 | 9.0 | 0.00 | 0.00 | 0.00 | 54 | 1025.3 |
| 20260831073127 | 67 | 49 | 3.0 | 9.0 | 0.00 | 0.00 | 0.00 | 54 | 1025.5 |
| 20260831072627 | 67 | 35 | 3.0 | 7.0 | 0.00 | 0.00 | 0.00 | 55 | 1025.3 |
| 20260831072126 | 67 | 34 | 2.0 | 7.0 | 0.00 | 0.00 | 0.00 | 55 | 1025.2 |
| 20260831071626 | 67 | 34 | 3.0 | 7.0 | 0.00 | 0.00 | 0.00 | 56 | 1025.2 |
| 20260831071127 | 66 | 30 | 4.0 | 7.0 | 0.00 | 0.00 | 0.00 | 56 | 1025.1 |
| 20260831070627 | 66 | 10 | 3.0 | 7.0 | 0.00 | 0.00 | 0.00 | 56 | 1025.2 |
| 20260831070127 | 66 | 0 | 2.0 | 4.0 | 0.00 | 0.00 | 0.00 | 57 | 1025.0 |
| 20260831065627 | 66 | 0 | 0.0 | 4.0 | 0.00 | 0.00 | 0.00 | 57 | 1024.9 |
| 20260831065126 | 66 | 0 | 2.0 | 6.0 | 0.00 | 0.00 | 0.00 | 57 | 1024.9 |
| 20260831064626 | 65 | 0 | 2.0 | 6.0 | 0.00 | 0.00 | 0.00 | 56 | 1024.9 |
| 20260831064126 | 65 | 0 | 1.0 | 3.0 | 0.00 | 0.00 | 0.00 | 55 | 1024.9 |
| 20260831063626 | 65 | 0 | 1.0 | 2.0 | 0.00 | 0.00 | 0.00 | 54 | 1024.9 |
| 20260831063127 | 66 | 0 | 0.0 | 1.0 | 0.00 | 0.00 | 0.00 | 54 | 1024.6 |
| 20260831062627 | 66 | 0 | 0.0 | 2.0 | 0.00 | 0.00 | 0.00 | 53 | 1024.7 |
| 20260831062127 | 66 | 0 | 0.0 | 2.0 | 0.00 | 0.00 | 0.00 | 53 | 1024.6 |
| 20260831061846 | 66 | 0 | 0.0 | 4.0 | 0.00 | 0.00 | 0.00 | 53 | 1024.6 |
| 20260831061126 | 65 | 0 | 1.0 | 6.0 | 0.00 | 0.00 | 0.00 | 54 | 1024.7 |
| 20260831061117 | 65 | 358 | 3.0 | 6.0 | 0.00 | 0.00 | 0.00 | 54 | 1024.7 |
| 20260831060449 | 65 | 271 | 0.0 | 2.0 | 0.00 | 0.00 | 0.00 | 54 | 1024.6 |
| 20260831055626 | 66 | 271 | 0.0 | 0.0 | 0.00 | 0.00 | 0.00 | 53 | 1024.5 |
| 20260831055126 | 66 | 271 | 0.0 | 0.0 | 0.00 | 0.00 | 0.00 | 52 | 1024.4 |
| 20260831054627 | 67 | 271 | 0.0 | 0.0 | 0.00 | 0.00 | 0.00 | 52 | 1024.4 |
| 20260831054127 | 67 | 271 | 0.0 | 0.0 | 0.00 | 0.00 | 0.00 | 51 | 1024.5 |
| 20260831053852 | 67 | 271 | 0.0 | 0.0 | 0.00 | 0.00 | 0.00 | 51 | 1024.5 |
| 20260831053347 | 68 | 271 | 0.0 | 0.0 | 0.00 | 0.00 | 0.00 | 50 | 1024.5 |
| 20260831052626 | 68 | 271 | 0.0 | 0.0 | 0.00 | 0.00 | 0.00 | 49 | 1024.4 |
| 20260831052126 | 69 | 271 | 0.0 | 1.0 | 0.00 | 0.00 | 0.00 | 49 | 1024.5 |
| 20260831051820 | 69 | 271 | 0.0 | 3.0 | 0.00 | 0.00 | 0.00 | 48 | 1024.5 |
| 20260831050846 | 69 | 271 | 1.0 | 2.0 | 0.00 | 0.00 | 0.00 | 48 | 1024.5 |
| 20260831050127 | 69 | 271 | 0.0 | 3.0 | 0.00 | 0.00 | 0.00 | 46 | 1024.2 |
| 20260831045849 | 70 | 271 | 2.0 | 3.0 | 0.00 | 0.00 | 0.00 | 46 | 1024.2 |
| 20260831045126 | 70 | 271 | 1.0 | 4.0 | 0.00 | 0.00 | 0.00 | 46 | 1024.2 |
| 20260831044626 | 70 | 271 | 3.0 | 4.0 | 0.00 | 0.00 | 0.00 | 46 | 1024.4 |
| 20260831044126 | 70 | 269 | 0.0 | 2.0 | 0.00 | 0.00 | 0.00 | 46 | 1024.4 |
| 20260831043627 | 71 | 269 | 0.0 | 3.0 | 0.00 | 0.00 | 0.00 | 46 | 1024.4 |
| 20260831043126 | 71 | 269 | 1.0 | 5.0 | 0.00 | 0.00 | 0.00 | 45 | 1024.2 |
| 20260831042626 | 71 | 269 | 2.0 | 6.0 | 0.00 | 0.00 | 0.00 | 45 | 1024.2 |
| 20260831042126 | 72 | 278 | 3.0 | 6.0 | 0.00 | 0.00 | 0.00 | 45 | 1024.4 |
| 20260831041346 | 72 | 343 | 2.0 | 5.0 | 0.00 | 0.00 | 0.00 | 44 | 1024.4 |
| 20260831040627 | 72 | 347 | 3.0 | 5.0 | 0.00 | 0.00 | 0.00 | 44 | 1024.2 |
| 20260831040127 | 73 | 350 | 2.0 | 4.0 | 0.00 | 0.00 | 0.00 | 44 | 1024.2 |
| 20260831040109 | 73 | 350 | 2.0 | 5.0 | 0.00 | 0.00 | 0.00 | 44 | 1024.2 |
| 20260831035126 | 73 | 351 | 3.0 | 5.0 | 0.00 | 0.00 | 0.00 | 44 | 1024.2 |
| 20260831034626 | 73 | 0 | 2.0 | 4.0 | 0.00 | 0.00 | 0.00 | 45 | 1024.2 |
| 20260831034126 | 73 | 41 | 2.0 | 4.0 | 0.00 | 0.00 | 0.00 | 44 | 1024.4 |
| 20260831033627 | 73 | 42 | 2.0 | 5.0 | 0.00 | 0.00 | 0.00 | 44 | 1024.4 |
| 20260831033126 | 73 | 48 | 3.0 | 6.0 | 0.00 | 0.00 | 0.00 | 44 | 1024.4 |
| 20260831032627 | 73 | 86 | 3.0 | 6.0 | 0.00 | 0.00 | 0.00 | 45 | 1024.2 |
| 20260831032126 | 72 | 86 | 2.0 | 4.0 | 0.00 | 0.00 | 0.00 | 45 | 1024.2 |
| 20260831031626 | 72 | 86 | 2.0 | 4.0 | 0.00 | 0.00 | 0.00 | 46 | 1024.0 |
| 20260831031127 | 73 | 86 | 1.0 | 3.0 | 0.00 | 0.00 | 0.00 | 46 | 1024.0 |
| 20260831030626 | 73 | 86 | 2.0 | 3.0 | 0.00 | 0.00 | 0.00 | 46 | 1024.0 |
| 20260831030347 | 73 | 86 | 2.0 | 3.0 | 0.00 | 0.00 | 0.00 | 46 | 1023.9 |
| 20260831025627 | 73 | 86 | 2.0 | 3.0 | 0.00 | 0.00 | 0.00 | 46 | 1023.9 |
| 20260831025126 | 73 | 86 | 2.0 | 3.0 | 0.00 | 0.00 | 0.00 | 46 | 1023.8 |
| 20260831024626 | 73 | 86 | 2.0 | 3.0 | 0.00 | 0.00 | 0.00 | 46 | 1023.6 |
| 20260831024126 | 74 | 86 | 0.0 | 4.0 | 0.00 | 0.00 | 0.00 | 46 | 1023.6 |
| 20260831023626 | 74 | 86 | 2.0 | 4.0 | 0.00 | 0.01 | 0.00 | 45 | 1023.5 |
| 20260831023347 | 74 | 86 | 1.0 | 3.0 | 0.00 | 0.01 | 0.00 | 45 | 1023.5 |
| 20260831022626 | 74 | 86 | 1.0 | 5.0 | 0.00 | 0.01 | 0.00 | 44 | 1023.5 |
| 20260831022126 | 74 | 86 | 2.0 | 5.0 | 0.00 | 0.01 | 0.00 | 43 | 1023.4 |
| 20260831021627 | 75 | 86 | 2.0 | 5.0 | 0.00 | 0.01 | 0.00 | 44 | 1023.3 |
| 20260831021126 | 75 | 86 | 2.0 | 4.0 | 0.00 | 0.01 | 0.00 | 44 | 1023.2 |
| 20260831020626 | 75 | 87 | 1.0 | 4.0 | 0.00 | 0.01 | 0.00 | 43 | 1023.2 |
| 20260831020126 | 75 | 87 | 2.0 | 4.0 | 0.00 | 0.02 | 0.00 | 44 | 1023.0 |
| 20260831015627 | 76 | 87 | 2.0 | 4.0 | 0.00 | 0.06 | 0.00 | 43 | 1023.2 |
| 20260831015126 | 77 | 87 | 1.0 | 2.0 | 0.00 | 0.06 | 0.00 | 42 | 1023.2 |
| 20260831014626 | 78 | 87 | 0.0 | 0.0 | 0.00 | 0.06 | 0.00 | 40 | 1022.9 |
| 20260831014126 | 79 | 87 | 0.0 | 0.0 | 0.00 | 0.06 | 0.00 | 40 | 1022.9 |
| 20260831013847 | 80 | 87 | 0.0 | 0.0 | 0.00 | 0.06 | 0.00 | 38 | 1022.9 |
| 20260831013126 | 81 | 87 | 0.0 | 0.0 | 0.00 | 0.06 | 0.00 | 38 | 1022.9 |
| 20260831012626 | 82 | 87 | 0.0 | 0.0 | 0.00 | 0.06 | 0.00 | 38 | 1022.9 |
| 20260831012347 | 82 | 87 | 0.0 | 2.0 | 0.00 | 0.06 | 0.00 | 38 | 1022.9 |
| 20260831011626 | 83 | 87 | 0.0 | 2.0 | 0.00 | 0.06 | 0.00 | 36 | 1022.9 |
| 20260831011127 | 83 | 87 | 0.0 | 2.0 | 0.00 | 0.06 | 0.00 | 36 | 1022.9 |
| 20260831010626 | 83 | 87 | 0.0 | 2.0 | 0.00 | 0.06 | 0.00 | 35 | 1022.9 |
| 20260831010126 | 83 | 87 | 0.0 | 2.0 | 0.00 | 0.06 | 0.00 | 35 | 1022.9 |
| 20260831005626 | 84 | 87 | 0.0 | 3.0 | 0.00 | 0.06 | 0.00 | 35 | 1023.0 |
| 20260831005126 | 84 | 87 | 1.0 | 3.0 | 0.00 | 0.06 | 0.00 | 34 | 1022.9 |
| 20260831004626 | 84 | 87 | 0.0 | 0.0 | 0.00 | 0.06 | 0.00 | 34 | 1022.9 |
| 20260831004126 | 84 | 87 | 0.0 | 2.0 | 0.00 | 0.06 | 0.00 | 34 | 1023.0 |
| 20260831003626 | 84 | 87 | 0.0 | 4.0 | 0.00 | 0.06 | 0.00 | 33 | 1022.9 |
| 20260831003125 | 85 | 87 | 2.0 | 4.0 | 0.00 | 0.06 | 0.00 | 33 | 1023.0 |
| 20260831002626 | 85 | 87 | 0.0 | 5.0 | 0.00 | 0.06 | 0.00 | 33 | 1023.0 |
| 20260831002126 | 86 | 87 | 1.0 | 5.0 | 0.00 | 0.06 | 0.00 | 32 | 1023.0 |
| 20260831001626 | 86 | 87 | 0.0 | 4.0 | 0.00 | 0.06 | 0.00 | 33 | 1023.2 |
| 20260831001126 | 86 | 87 | 0.0 | 6.0 | 0.00 | 0.06 | 0.00 | 32 | 1023.2 |
| 20260831000626 | 87 | 87 | 3.0 | 6.0 | 0.00 | 0.06 | 0.00 | 33 | 1023.2 |
| 20260831000355 | 87 | 100 | 1.0 | 6.0 | 0.00 | 0.06 | 0.00 | 32 | 1023.2 |
| 20260830235627 | 87 | 100 | 2.0 | 6.0 | 0.00 | 0.06 | 0.00 | 33 | 1022.9 |
| 20260830235343 | 88 | 83 | 4.0 | 5.0 | 0.00 | 0.06 | 0.00 | 31 | 1023.0 |
| 20260830234626 | 87 | 42 | 2.0 | 4.0 | 0.00 | 0.06 | 0.00 | 32 | 1022.9 |
| 20260830234126 | 87 | 44 | 2.0 | 5.0 | 0.00 | 0.06 | 0.00 | 32 | 1022.9 |
| 20260830233626 | 87 | 44 | 2.0 | 5.0 | 0.00 | 0.06 | 0.00 | 32 | 1023.0 |
| 20260830233126 | 87 | 44 | 2.0 | 9.0 | 0.00 | 0.06 | 0.00 | 32 | 1023.0 |
| 20260830233104 | 87 | 51 | 3.0 | 9.0 | 0.00 | 0.06 | 0.00 | 32 | 1022.9 |
| 20260830232126 | 87 | 27 | 0.0 | 5.0 | 0.00 | 0.06 | 0.00 | 32 | 1022.9 |
| 20260830231849 | 87 | 27 | 2.0 | 5.0 | 0.00 | 0.06 | 0.00 | 32 | 1023.0 |
| 20260830231126 | 87 | 27 | 2.0 | 6.0 | 0.00 | 0.06 | 0.00 | 33 | 1023.2 |
| 20260830230626 | 88 | 30 | 2.0 | 6.0 | 0.00 | 0.06 | 0.00 | 32 | 1023.2 |
| 20260830230125 | 88 | 25 | 1.0 | 9.0 | 0.00 | 0.06 | 0.00 | 33 | 1023.0 |
| 20260830225626 | 88 | 25 | 1.0 | 10.0 | 0.00 | 0.06 | 0.00 | 32 | 1023.0 |
| 20260830225126 | 88 | 8 | 4.0 | 10.0 | 0.00 | 0.06 | 0.00 | 33 | 1023.3 |
| 20260830224626 | 88 | 354 | 2.0 | 9.0 | 0.00 | 0.06 | 0.00 | 33 | 1023.3 |
| 20260830224126 | 88 | 27 | 1.0 | 7.0 | 0.00 | 0.06 | 0.00 | 33 | 1023.3 |
| 20260830223626 | 87 | 17 | 4.0 | 9.0 | 0.00 | 0.06 | 0.00 | 33 | 1023.4 |
| 20260830223357 | 87 | 27 | 4.0 | 9.0 | 0.00 | 0.06 | 0.00 | 33 | 1023.4 |
| 20260830222625 | 87 | 42 | 3.0 | 6.0 | 0.00 | 0.06 | 0.00 | 33 | 1023.3 |
| 20260830222126 | 87 | 58 | 1.0 | 7.0 | 0.00 | 0.06 | 0.00 | 35 | 1023.4 |
| 20260830221626 | 87 | 48 | 4.0 | 7.0 | 0.00 | 0.06 | 0.00 | 34 | 1023.3 |
| 20260830221126 | 86 | 37 | 3.0 | 9.0 | 0.00 | 0.06 | 0.00 | 34 | 1023.5 |
| 20260830220626 | 86 | 27 | 3.0 | 9.0 | 0.00 | 0.06 | 0.00 | 35 | 1023.5 |
| 20260830220126 | 85 | 345 | 2.0 | 6.0 | 0.00 | 0.06 | 0.00 | 35 | 1023.6 |
| 20260830215625 | 85 | 37 | 2.0 | 6.0 | 0.00 | 0.06 | 0.00 | 37 | 1023.8 |
| 20260830215127 | 85 | 65 | 3.0 | 9.0 | 0.00 | 0.06 | 0.00 | 37 | 1023.8 |
| 20260830214626 | 84 | 42 | 4.0 | 10.0 | 0.00 | 0.06 | 0.00 | 37 | 1023.6 |
| 20260830214126 | 84 | 49 | 2.0 | 10.0 | 0.00 | 0.06 | 0.00 | 37 | 1023.9 |
| 20260830213626 | 83 | 39 | 3.0 | 7.0 | 0.00 | 0.06 | 0.00 | 38 | 1023.9 |
| 20260830213126 | 83 | 32 | 2.0 | 7.0 | 0.00 | 0.06 | 0.00 | 39 | 1023.9 |
| 20260830212625 | 82 | 32 | 2.0 | 5.0 | 0.00 | 0.06 | 0.00 | 40 | 1024.0 |
| 20260830212127 | 82 | 34 | 3.0 | 5.0 | 0.00 | 0.06 | 0.00 | 39 | 1024.0 |
| 20260830211625 | 82 | 34 | 3.0 | 6.0 | 0.00 | 0.06 | 0.00 | 41 | 1024.0 |
| 20260830211125 | 81 | 34 | 2.0 | 6.0 | 0.00 | 0.06 | 0.00 | 41 | 1024.1 |